Flag for Vietnam Weather past 2 weeks in Ho Chi Minh, Vietnam

Now
90 °F

Partly sunny.


Feels Like: 98 °F
Forecast: 76 / 87 °F
Wind: 17 mph from West

Location: Ho Chi Minh

Current Time: Aug 2, 2014 at 3:47:11 PM

Latest Report: Aug 2, 2014 at 3:00 PM


Visibility: N/A

Pressure: 29.68 "Hg

Humidity: 59%

Dew point: 73 °F

Location of Ho Chi MinhLocation

Historic Weather in Ho Chi Minh — Graph

°F

Ho Chi Minh temperature yesterday

Maximum temperature yesterday: 88 °F (at 12:00 PM)
Minimum temperature yesterday: 79 °F (at 1:00 AM)
Average temperature yesterday: 82 °F

Past Weeks' High & Low Weather Summary

 TemperatureHumidityPressure
High91 °F (Jul 20, 12:30 PM)100% (Jul 18, 2:00 PM)29.86 "Hg (Jul 18, 2:00 PM)
Low73 °F (Jul 20, 1:00 AM)56% (Jul 20, 1:00 PM)29.65 "Hg (Jul 28, 4:30 PM)
Average81 °F88%29.76 "Hg
* Reported Jul 18 2:00 PM — Aug 2 2:30 PM, Ho Chi Minh, Weather by CustomWeather, © 2014

Note: Actual official high and low records may vary slightly from our data, if they occured in-between our weather recording intervals... More about our weather records

Advertising

Ho Chi Minh weather history for previous 24 hours

 ConditionsComfort  
Time TempWeatherWind HumidityBarometerVisibility
2:30 PM
Aug 2
90 °FPartly sunny.16 mph59%29.68 "HgN/A
2:00 PM90 °FScattered clouds.16 mph59%29.71 "HgN/A
1:30 PM90 °FScattered clouds.17 mph59%29.71 "HgN/A
1:00 PM90 °FScattered clouds.18 mph63%29.71 "HgN/A
12:30 PM86 °FScattered clouds.7 mph70%29.74 "HgN/A
12:00 PM86 °FScattered showers. Scattered clouds.13 mph62%29.74 "Hg5 mi
11:30 AM88 °FPartly sunny.17 mph66%29.77 "HgN/A
11:00 AM88 °FPartly sunny.14 mph66%29.77 "HgN/A
10:30 AM88 °FPartly sunny.14 mph66%29.77 "HgN/A
10:00 AM88 °FPartly sunny.14 mph66%29.77 "HgN/A
9:30 AM86 °FPartly sunny.13 mph75%29.77 "Hg1 mi
9:00 AM84 °FPartly sunny.13 mph74%29.77 "HgN/A
8:30 AM84 °FPartly sunny.14 mph79%29.77 "HgN/A
8:00 AM84 °FScattered clouds.13 mph79%29.77 "HgN/A
7:30 AM82 °FBroken clouds.14 mph79%29.77 "HgN/A
7:00 AM81 °FBroken clouds.10 mph89%29.77 "Hg5 mi
6:30 AM81 °FBroken clouds.9 mph89%29.74 "Hg4 mi
6:00 AM79 °FBroken clouds.8 mph89%29.74 "Hg4 mi
5:30 AM79 °FPartly cloudy.9 mph89%29.74 "Hg4 mi
5:00 AM79 °FPassing clouds.8 mph89%29.74 "Hg4 mi
4:30 AM79 °FPassing clouds.9 mph89%29.71 "Hg4 mi
4:00 AM79 °FPassing clouds.8 mph89%29.71 "Hg4 mi
3:30 AM79 °FPassing clouds.8 mph89%29.71 "Hg4 mi
3:00 AM79 °FPassing clouds.8 mph89%29.71 "Hg4 mi
2:30 AM79 °FPassing clouds.7 mph89%29.71 "Hg4 mi
2:00 AM79 °FPassing clouds.6 mph89%29.71 "Hg4 mi
1:30 AM79 °FPassing clouds.6 mph89%29.74 "Hg4 mi
1:00 AM79 °FPassing clouds.12 mph94%29.74 "Hg4 mi
12:30 AM81 °FPassing clouds.7 mph89%29.74 "Hg4 mi
12:00 AM81 °FPassing clouds.8 mph89%29.74 "Hg4 mi
11:30 PM
Aug 1
81 °FPassing clouds.9 mph89%29.77 "Hg4 mi
11:00 PM81 °FPassing clouds.9 mph89%29.77 "Hg4 mi
10:30 PM81 °FPassing clouds.6 mph89%29.77 "Hg6 mi
10:00 PM81 °FPassing clouds.9 mph89%29.77 "HgN/A
9:30 PM81 °FPassing clouds.8 mph84%29.74 "Hg6 mi
9:00 PM81 °FPassing clouds.8 mph84%29.74 "Hg6 mi
8:30 PM82 °FPassing clouds.8 mph84%29.74 "HgN/A
8:00 PM82 °FPassing clouds.8 mph79%29.74 "HgN/A
7:30 PM82 °FPassing clouds.8 mph79%29.71 "HgN/A
7:00 PM82 °FPassing clouds.9 mph79%29.71 "HgN/A
6:30 PM82 °FPassing clouds.8 mph79%29.71 "HgN/A
6:00 PM82 °FOvercast.9 mph79%29.68 "HgN/A
5:30 PM82 °FSunny.8 mph79%29.68 "Hg10 mi
5:00 PM82 °FMostly cloudy.9 mph79%29.68 "HgN/A
4:30 PM84 °FMore clouds than sun.9 mph79%29.68 "HgN/A
4:00 PM84 °FBroken clouds.10 mph79%29.68 "Hg5 mi
3:30 PM84 °FBroken clouds.14 mph74%29.68 "Hg5 mi
3:00 PM86 °FBroken clouds.13 mph70%29.68 "Hg5 mi
Weather by CustomWeather, © 2014

See weather overviewHow to use our weather pages